Location: Devore Heights
(34.2372°N, 117.4156°W)
Time: 01:25:30
(UTC+00:00)

A-11 Canister half - Pass Details

Date: 13 September 2024
Orbit: 1515 x 1684 km, 47.2° (Epoch: 06 October)

Event Time Altitude Azimuth Distance (km) Brightness Sun altitude
Rises 07:35:56 0° 302° (WNW) 4,662 11.8 -52.1°
Reaches altitude 10° 07:39:09 10° 308° (NW) 3,676 11.2 -52.2°
Enters shadow 07:41:53 21° 316° (NW) 2,898 10.6 -52.2°
